Location: Carnoy
(49.9849°N, 2.7558°E)
Time: 09:34:20
(UTC+00:00)

STARLINK-1101 - Pass Details

Date: 24 January 2020
Orbit: 525 x 527 km, 53.0° (Epoch: 17 February)

Event Time Altitude Azimuth Distance (km) Brightness Sun altitude
Rises 18:21:22 0° 282° (WNW) 2,640 8.4 -17.8°
Reaches altitude 10° 18:23:37 10° 287° (WNW) 1,748 7.2 -18.2°
Maximum altitude 18:27:31 55° 6° (N) 620 3.7 -18.8°
Enters shadow 18:28:14 47° 48° (NE) 689 3.7 -18.9°
